Pensacola, FL

8:51 PM CDT on April 21, 2018 (GMT -0500)
Pensacola Regional

Weather History for KPNS - October, 2013

Change the Weather History Date:

Monday, October 21, 2013

  Actual Average Record
Temperature  
Mean Temperature 68 °F 68 °F  
Max Temperature 73 °F 78 °F 88 °F (1963)
Min Temperature 62 °F 59 °F 34 °F (1989)
Degree Days  
Heating Degree Days 0 2  
Month to date heating degree days 0 12  
Since 1 July heating degree days 0 13  
Cooling Degree Days 3 5  
Month to date cooling degree days 200 143  
Year to date cooling degree days 2658 2513  
Growing Degree Days 18 (Base 50)    
Moisture  
Dew Point 58 °F    
Average Humidity 71    
Maximum Humidity 81    
Minimum Humidity 61    
Precipitation  
Precipitation 0.03 in 0.16 in 3.20 in (1900)
Month to date precipitation 1.78 3.57  
Year to date precipitation 65.44 54.32  
Sea Level Pressure  
Sea Level Pressure 30.02 in    
Wind  
Wind Speed 4 mph (NNE)    
Max Wind Speed 10 mph    
Max Gust Speed 13 mph    
Visibility 10 miles    
Events Rain    
T = Trace of Precipitation, MM = Missing Value Source: NWS Daily Summary

Daily Weather History Graph

Daily Weather History Graph

Search for Another Location

Airport or City:

Astronomy

Oct. 21, 2013 Rise Set
Actual Time 6:55 AM CDT 6:10 PM CDT
Civil Twilight 6:30 AM CDT 6:35 PM CDT
Nautical Twilight 6:02 AM CDT 7:03 PM CDT
Astronomical Twilight 5:34 AM CDT 7:31 PM CDT
Moon 8:13 PM CDT (10/21) 9:20 AM CDT (10/21)
Length of Visible Light 12h 04m
Length of Day
11h 15m
Waning Gibbous, 92% of the Moon is Illuminated
Oct 21
Waning Gibbous
Oct 26
Last Quarter
Nov 3
New
Nov 9
First Quarter
Nov 17
Full

Hourly Weather History & Observations

Time (CDT) Temp. Dew Point Humidity Pressure Visibility Wind Dir Wind Speed Gust Speed Precip Events Conditions
12:53 AM 64.9 °F 55.0 °F 70% 30.02 in 10.0 mi NNE 3.5 mph - N/A   Clear
1:53 AM 64.0 °F 55.0 °F 73% 30.02 in 10.0 mi Calm Calm - N/A   Clear
2:53 AM 64.0 °F 55.0 °F 73% 30.01 in 10.0 mi NNE 3.5 mph - N/A   Clear
3:53 AM 63.0 °F 55.0 °F 75% 30.01 in 10.0 mi NNE 3.5 mph - N/A   Clear
4:53 AM 64.0 °F 55.0 °F 73% 30.02 in 10.0 mi North 3.5 mph - N/A   Clear
5:53 AM 64.0 °F 55.0 °F 73% 30.03 in 10.0 mi North 3.5 mph - N/A   Clear
6:53 AM 63.0 °F 55.0 °F 75% 30.04 in 10.0 mi North 3.5 mph - N/A   Clear
7:53 AM 64.0 °F 55.0 °F 73% 30.05 in 10.0 mi NNE 5.8 mph - N/A   Partly Cloudy
8:53 AM 66.0 °F 55.0 °F 68% 30.06 in 10.0 mi NNE 4.6 mph - N/A   Clear
9:53 AM 66.0 °F 55.0 °F 68% 30.06 in 10.0 mi NNE 5.8 mph - N/A   Clear
10:53 AM 69.1 °F 55.9 °F 63% 30.06 in 10.0 mi NNE 8.1 mph - N/A   Clear
11:53 AM 69.1 °F 57.0 °F 65% 30.06 in 10.0 mi Calm Calm - 0.00 in Rain Light Rain
12:53 PM 70.0 °F 59.0 °F 68% 30.02 in 10.0 mi NNE 6.9 mph - 0.00 in   Scattered Clouds
1:53 PM 71.1 °F 59.0 °F 66% 30.02 in 10.0 mi NNW 5.8 mph - N/A   Scattered Clouds
2:53 PM 73.0 °F 61.0 °F 66% 29.99 in 10.0 mi North 3.5 mph - 0.00 in   Scattered Clouds
3:53 PM 73.0 °F 61.0 °F 66% 29.99 in 10.0 mi NNE 3.5 mph - N/A   Scattered Clouds
4:53 PM 72.0 °F 60.1 °F 66% 30.00 in 10.0 mi North 4.6 mph - N/A   Clear
5:53 PM 69.1 °F 61.0 °F 75% 30.01 in 10.0 mi North 4.6 mph - N/A   Clear
6:53 PM 69.1 °F 61.0 °F 75% 30.01 in 10.0 mi North 3.5 mph - N/A   Clear
7:53 PM 69.1 °F 61.0 °F 75% 30.02 in 10.0 mi NNE 3.5 mph - N/A   Clear
8:53 PM 69.1 °F 60.1 °F 73% 30.01 in 10.0 mi NNE 5.8 mph - N/A   Partly Cloudy
9:53 PM 69.1 °F 59.0 °F 70% 30.02 in 10.0 mi Variable 3.5 mph - N/A   Mostly Cloudy
10:53 PM 66.9 °F 61.0 °F 81% 30.01 in 10.0 mi NE 3.5 mph - 0.00 in Rain Light Rain
11:53 PM 66.0 °F 61.0 °F 84% 29.99 in 10.0 mi Calm Calm - 0.02 in Rain Light Rain